(16586) = 1992 RZ6 = 1999 GK10

Discovered at La Silla on 1992-09-02 by E. W. Elst.

Orbit

Orbit type: Main Belt

Note: WebGL enabled browser required.

epoch2024-03-31.0
epoch JD2460400.5
perihelion date2025-02-03.23082
perihelion JD2460709.73082
argument of perihelion (°)301.82224
ascending node (°)19.42357
inclination (°)3.82959
eccentricity0.1672587
perihelion distance (AU)2.1267739
Tisserand w.r.t. Jupiter3.4
ΔV w.r.t. Earth (km/sec)9.2
semimajor axis (AU)2.5539430
mean anomaly (°)285.32593
mean daily motion (°/day)0.24148330
aphelion distance (AU)2.981
period (years)4.08
P-vector [x]0.77920773
P-vector [y]-0.55011044
P-vector [z]-0.30035617
Q-vector [x]0.62637210
Q-vector [y]0.70046072
Q-vector [z]0.34207130
absolute magnitude16.06
phase slope0.15
uncertainty0
referenceMPEC 2024-C107
observations used511
oppositions22
arc length (days)11691
first opposition used1991
last opposition used2023
residual rms (arc-secs)0.79
perturbers coarse indicatorM-v
perturbers precise indicator003Ek
first observation date used1991-04-13.0
last observation date used2023-04-16.0
computer nameMPCLINUX
JD of orbit computation2456670.694493
perihelion JD uncertainty (days)8.2675E-05
argument of perihelion uncertainty (°)8.0511E-05
ascending node uncertainty (°)7.9320E-05
inclination uncertainty (°)5.2761E-06
eccentricity uncertainty 6.1886E-08
perihelion distance uncertainty (AU)1.5127E-07
Minimum Orbit Intersection Distances (in AU)
for orbit epoch: 2460200.5, reference: E2024-CA7
Mercury1.70367
Venus1.39809
Earth1.11616
Mars0.73985
Jupiter2.32568
Saturn6.18083
Uranus15.494
Neptune27.2741

Observations

525 total observations over interval: 1991 04 13.29543 – 2023 04 16.531949
These data are available for download (format description).

Date (UT) J2000 RA J2000 Dec Magn Location Ref
1991 04 13.29543 13 10 35.75 -07 32 47.6 20.9 V 691 – Steward Observatory, Kitt Peak-Spacewatch MPS 78913
1991 04 13.31638 13 10 34.55 -07 32 42.0 20.9 V 691 – Steward Observatory, Kitt Peak-Spacewatch MPS 78913
1991 04 13.33705 13 10 33.33 -07 32 36.4 20.8 V 691 – Steward Observatory, Kitt Peak-Spacewatch MPS 78913
1992 09 02.18403 23 54 17.13 -04 33 40.2 18.8   809 – European Southern Observatory, La Silla MPC 21074
1992 09 02.19444 23 54 16.63 -04 33 42.0   809 – European Southern Observatory, La Silla MPC 21074
1992 09 02.20486 23 54 15.98 -04 33 44.8   809 – European Southern Observatory, La Silla MPC 21074
1992 09 03.27222 23 53 25.16 -04 37 18.4   809 – European Southern Observatory, La Silla MPC 21074
1992 09 22.14375 23 36 51.16 -05 40 51.2 18.6   809 – European Southern Observatory, La Silla MPC 21456
1992 09 22.15694 23 36 50.35 -05 40 55.1   809 – European Southern Observatory, La Silla MPC 21456
1992 09 22.17014 23 36 49.60 -05 40 57.5   809 – European Southern Observatory, La Silla MPC 21456
1992 09 23.15694 23 35 57.94 -05 43 49.1   809 – European Southern Observatory, La Silla MPC 21456
1992 09 23.17014 23 35 57.13 -05 43 52.1   809 – European Southern Observatory, La Silla MPC 21456
1992 09 23.18333 23 35 56.37 -05 43 54.1   809 – European Southern Observatory, La Silla MPC 21456
1993 11 10.48637 08 07 24.12 +24 52 08.7 20.5 V 691 – Steward Observatory, Kitt Peak-Spacewatch MPS 80737
1993 11 10.50055 08 07 24.48 +24 52 09.3 21.3 V 691 – Steward Observatory, Kitt Peak-Spacewatch MPS 80737
1993 11 10.51495 08 07 24.69 +24 52 10.2 21.2 V 691 – Steward Observatory, Kitt Peak-Spacewatch MPS 80737
1995 04 05.40462 12 43 53.44 -03 54 23.3 19.6 V 691 – Steward Observatory, Kitt Peak-Spacewatch MPS 80737
1995 04 05.42691 12 43 52.17 -03 54 17.2 19.7 V 691 – Steward Observatory, Kitt Peak-Spacewatch MPS 80737
1995 04 05.45150 12 43 50.79 -03 54 10.2 19.9 V 691 – Steward Observatory, Kitt Peak-Spacewatch MPS 80737
1996 08 14.50240 23 05 43.90 -11 22 37.7 19.6 V 566 – Haleakala-NEAT/GEODSS MPS 5826
1996 08 14.51306 23 05 43.40 -11 22 39.8 20.0 V 566 – Haleakala-NEAT/GEODSS MPS 5826
1996 08 14.52151 23 05 43.09 -11 22 40.6 19.9 V 566 – Haleakala-NEAT/GEODSS MPS 5826
1998 01 06.35319 07 04 05.90 +28 27 01.5 19.3 R 688 – Lowell Observatory, Anderson Mesa Station MPS 5826
1998 01 06.37046 07 04 04.72 +28 27 03.3   688 – Lowell Observatory, Anderson Mesa Station MPS 5826
1999 03 22.311080 12 24 33.864 -00 54 47.92 19.87 V 645 – Apache Point-Sloan Digital Sky Survey MPS 80737
1999 03 22.314552 12 24 33.668 -00 54 46.93 20.81   645 – Apache Point-Sloan Digital Sky Survey MPS 80737
1999 04 09.25930 12 08 27.77 +00 25 50.7 20.3 V 691 – Steward Observatory, Kitt Peak-Spacewatch MPS 80737
1999 04 09.28042 12 08 26.66 +00 25 56.3 20.3 V 691 – Steward Observatory, Kitt Peak-Spacewatch MPS 80737
1999 04 09.30171 12 08 25.61 +00 26 00.7 20.1 V 691 – Steward Observatory, Kitt Peak-Spacewatch MPS 80737
1999 04 11.20365 12 06 50.69 +00 33 32.3 20.3 V 691 – Steward Observatory, Kitt Peak-Spacewatch MPS 4578
1999 04 11.22441 12 06 49.65 +00 33 37.0 20.1 V 691 – Steward Observatory, Kitt Peak-Spacewatch MPS 4578
1999 04 11.24561 12 06 48.54 +00 33 41.6 20.3 V 691 – Steward Observatory, Kitt Peak-Spacewatch MPS 4578
1999 04 17.19982 12 02 11.45 +00 54 53.6 20.2 V 691 – Steward Observatory, Kitt Peak-Spacewatch MPS 4578
1999 04 17.22083 12 02 10.54 +00 54 57.8 20.4 V 691 – Steward Observatory, Kitt Peak-Spacewatch MPS 4578
1999 04 17.24180 12 02 09.55 +00 55 01.6 20.5 V 691 – Steward Observatory, Kitt Peak-Spacewatch MPS 4578
2000 06 09.43323 22 02 33.99 -17 34 34.9 20.1 V 691 – Steward Observatory, Kitt Peak-Spacewatch MPS 15041
2000 06 09.43801 22 02 34.24 -17 34 34.4 20.3 V 691 – Steward Observatory, Kitt Peak-Spacewatch MPS 15041
2000 06 09.44267 22 02 34.41 -17 34 33.5 20.4 V 691 – Steward Observatory, Kitt Peak-Spacewatch MPS 15041
2000 08 01.31666 22 05 07.32 -18 27 55.8 18.5   704 – Lincoln Laboratory ETS, New Mexico MPS 17338
2000 08 01.33120 22 05 06.68 -18 27 59.3 18.9   704 – Lincoln Laboratory ETS, New Mexico MPS 17338
2000 08 01.34572 22 05 06.00 -18 28 03.3 18.9   704 – Lincoln Laboratory ETS, New Mexico MPS 17338
2000 08 01.36067 22 05 05.29 -18 28 06.8 18.8   704 – Lincoln Laboratory ETS, New Mexico MPS 17338
2000 08 01.37523 22 05 04.63 -18 28 10.1 18.9   704 – Lincoln Laboratory ETS, New Mexico MPS 17338
2000 08 07.38663 22 00 23.32 -18 50 05.2 19.0   608 – Haleakala-AMOS MPS 17338
2000 08 07.39724 22 00 22.74 -18 50 07.9 19.1   608 – Haleakala-AMOS MPS 17338
2000 08 07.40850 22 00 22.14 -18 50 10.1 19.0   608 – Haleakala-AMOS MPS 17338
2000 08 21.33520 21 47 59.86 -19 33 52.4 18.3 R 699 – Lowell Observatory-LONEOS MPS 17338
2000 08 21.35644 21 47 58.69 -19 33 55.1   699 – Lowell Observatory-LONEOS MPS 17338
2000 08 21.37767 21 47 57.49 -19 33 58.6   699 – Lowell Observatory-LONEOS MPS 17338
2000 08 21.39893 21 47 56.28 -19 34 00.9   699 – Lowell Observatory-LONEOS MPS 17338
2000 08 26.27195 21 43 39.25 -19 44 22.6 17.8   704 – Lincoln Laboratory ETS, New Mexico MPS 17338
2000 08 26.28539 21 43 38.48 -19 44 24.2 18.6   704 – Lincoln Laboratory ETS, New Mexico MPS 17338
2000 08 26.29887 21 43 37.83 -19 44 25.1 18.1   704 – Lincoln Laboratory ETS, New Mexico MPS 17338
2000 08 26.31232 21 43 37.05 -19 44 26.8 18.7   704 – Lincoln Laboratory ETS, New Mexico MPS 17338
2000 08 26.32577 21 43 36.32 -19 44 27.9 18.4   704 – Lincoln Laboratory ETS, New Mexico MPS 17338
2000 09 02.19004 21 38 06.44 -19 52 57.8 18.9   704 – Lincoln Laboratory ETS, New Mexico MPS 17338
2000 09 02.20386 21 38 05.79 -19 52 58.2 18.9   704 – Lincoln Laboratory ETS, New Mexico MPS 17338
2000 09 02.21726 21 38 05.18 -19 52 58.6 19.2   704 – Lincoln Laboratory ETS, New Mexico MPS 17338
2000 09 02.23054 21 38 04.50 -19 52 59.4 19.5   704 – Lincoln Laboratory ETS, New Mexico MPS 17338
2000 09 04.14230 21 36 42.50 -19 53 57.3 18.5 R 699 – Lowell Observatory-LONEOS MPS 20570
2000 09 04.17063 21 36 41.30 -19 53 57.7   699 – Lowell Observatory-LONEOS MPS 20570
2000 09 04.19886 21 36 40.01 -19 53 58.2   699 – Lowell Observatory-LONEOS MPS 20570
2000 09 04.22720 21 36 38.78 -19 53 59.6   699 – Lowell Observatory-LONEOS MPS 20570
2000 09 04.30380 21 36 35.46 -19 54 01.1 18.4   704 – Lincoln Laboratory ETS, New Mexico MPS 17338
2000 09 04.31740 21 36 34.86 -19 54 01.2 18.7   704 – Lincoln Laboratory ETS, New Mexico MPS 17338
2000 09 04.33097 21 36 34.27 -19 54 01.0 19.0   704 – Lincoln Laboratory ETS, New Mexico MPS 17338
2000 09 04.34444 21 36 33.67 -19 54 00.6 18.5   704 – Lincoln Laboratory ETS, New Mexico MPS 17338
2000 09 20.18502 21 29 05.16 -19 37 55.4 18.5   704 – Lincoln Laboratory ETS, New Mexico MPS 20570
2000 09 20.20042 21 29 04.91 -19 37 53.2 18.9   704 – Lincoln Laboratory ETS, New Mexico MPS 20570
2000 09 20.21561 21 29 04.69 -19 37 50.9 19.1   704 – Lincoln Laboratory ETS, New Mexico MPS 20570
2000 09 20.23066 21 29 04.48 -19 37 48.0 18.9   704 – Lincoln Laboratory ETS, New Mexico MPS 20570
2000 09 20.24581 21 29 04.20 -19 37 45.5 19.4   704 – Lincoln Laboratory ETS, New Mexico MPS 20570
2003 03 23.26644 11 51 38.07 +03 12 36.4 19.5 V 691 – Steward Observatory, Kitt Peak-Spacewatch MPS 77001
2003 03 23.31044 11 51 35.59 +03 12 48.7 19.7 V 691 – Steward Observatory, Kitt Peak-Spacewatch MPS 77001
2003 03 23.33732 11 51 34.07 +03 12 56.2 19.6 V 691 – Steward Observatory, Kitt Peak-Spacewatch MPS 77001
2003 03 26.20794 11 48 58.54 +03 26 09.0 19.9   644 – Palomar Mountain/NEAT MPS 77001
2003 03 26.22921 11 48 57.41 +03 26 14.7 20.1   644 – Palomar Mountain/NEAT MPS 77001
2003 03 26.25041 11 48 56.25 +03 26 20.4 19.9   644 – Palomar Mountain/NEAT MPS 77001
2004 06 27.69848 21 07 27.93 -23 22 13.3 18.6 R E12 – Siding Spring Survey MPS 110024
2004 06 27.70993 21 07 27.88 -23 22 16.6 18.7 R E12 – Siding Spring Survey MPS 110024
2004 06 27.72137 21 07 27.58 -23 22 16.4 18.7 R E12 – Siding Spring Survey MPS 110024
2004 06 27.73279 21 07 27.38 -23 22 18.8 18.7 R E12 – Siding Spring Survey MPS 110024
2004 07 09.29163 21 02 47.94 -24 00 36.0 18.6   644 – Palomar Mountain/NEAT MPS 110153
2004 07 09.32626 21 02 46.72 -24 00 43.6 18.6   644 – Palomar Mountain/NEAT MPS 110153
